Weather in Clacton-on-Sea

United Kingdom     51°48′02″N   1°09′12″E
temp.,
°C
wind,
m/s
gust,
m/s
humid.,
%
clouds,
%
prec.,
mm/h
press.,
hPa
HPBL,
m
8 december, wed
wed800:00+9sw13187595 0.6 9861413
03:00+8sw14177593 0.0 9871344
06:00+8sw1418735 0.0 9891264
09:00+7sw1418705 0.0 9911095
12:00+7sw1417715 0.0 9921165
15:00+7wsw121475100 0.1 9941233
18:00+7wsw12146697 0.1 9971400
21:00+7sw131569100 0.0 9981205
9 december, thu
thu900:00+5wsw121496100 0.8 998866
03:00+6w111291100 0.9 998824
06:00+6w101386100 1.2 999843
09:00+7w10118099 0.4 1001913
12:00+6w91079100 0.6 1001701
15:00+7wsw9107899 0.0 1000502
18:00+7sw787191 0.1 1000614
21:00+8s71074100 0.0 997784
10 december, fri
fri1000:00+8s101188100 1.3 9931013
03:00+7ese5588100 6.1 990806
06:00+6nw131892100 11.7 9921194
09:00+6nw141876100 0.4 9951212
12:00+6nw131872100 0.4 9971355
15:00+7nw131768100 0.0 10001300
18:00+6nw121770100 0.0 10041113
21:00+5nw11167681 0.0 1007846
11 december, sat
sat1100:00+5nw1015811 0.0 1010635
03:00+5nw913830 0.0 1013497
06:00+4nw710836 0.0 1015334
09:00+4wnw67835 0.0 1018251
12:00+6w56795 0.0 1019291
15:00+7wsw6777100 0.0 1020396
18:00+7wsw687699 0.0 1021544
21:00+7ssw81289100 1.2 1020602
12 december, sun
sun1200:00+9ssw111694100 5.6 1018795
03:00+10sw91497100 3.0 1018335
06:00+10wsw81295100 4.1 1018258
09:00+10wsw7129599 1.7 1019244
12:00+10wsw71193100 1.9 1020199
15:00+11sw610938 0.0 1020125
18:00+10sw9159253 0.0 1021288
21:00+10ssw91489100 0.0 1020253